Regional Weather Roundup
Issued by NWS Bismarck, ND

Home | Current Version | Previous Version | Text Only | Print | Product List | Glossary On
Versions: 1 2 3 4 5 6 7 8 9 10 11 12 13 14 15 16 17 18 19 20 21 22 23 24 25 26 27 28 29 30 31 32 33 34 35 36 37 38 39 40 41 42 43 44 45 46 47 48 49 50
000
ASUS43 KBIS 250920
RWRBIS

NWR BROADCAST TEXT
NATIONAL WEATHER SERVICE BISMARCK ND
400 AM CDT MON MAY 25 2015

NOTE: "FAIR" INDICATES FEW OR NO CLOUDS BELOW 12,000 FEET WITH NO
SIGNIFICANT WEATHER AND/OR OBSTRUCTIONS TO VISIBILITY.


CITY           SKY/WX    TMP DP  RH WIND       PRES   REMARKS
WILLISTON      PTCLDY    43  40  89 CALM      29.88F
MINOT          CLOUDY    54  47  77 SW5       29.85F
MINOT AFB      CLOUDY    52  52 100 NW6       29.85F
BISMARCK       LGT RAIN  55  54  96 NE6       29.85F
DICKINSON      CLOUDY    54  49  83 N6        29.86S
GARRISON         N/A     56  51  84 CALM      29.86F
HETTINGER ARPT RAIN      53  51  93 NE6       29.86S FOG
JAMESTOWN      LGT RAIN  56  55  97 NW7       29.83F
BEACH          CLOUDY    50  50 100 NW5       29.90S
CARRINGTON     PTSUNNY   55  55 100 W6        29.85F
CROSBY         FAIR      46  46 100 N3        29.90S
HARVEY         FAIR      55  55 100 W8        29.85F
HAZEN          CLOUDY    54  50  87 CALM      29.87S
LINTON         PTSUNNY   55  55 100 NE6       29.82F FOG
MANDAN         LGT RAIN  54  54 100 N5        29.86S
OAKES          LGT RAIN  55  55 100 N12       29.80F
STANLEY        FAIR      48  48 100 N3        29.89S
TIOGA          FAIR      39  39 100 CALM      29.92S
WATFORD CITY   PTSUNNY   45  41  87 CALM      29.87S
$$

CITY           SKY/WX    TMP DP  RH WIND       PRES   REMARKS
GRAND FORKS    CLOUDY    54  51  90 NW8       29.82F
GRAND FORKS AF CLOUDY    54  51  89 CALM      29.82F
DEVILS LAKE    CLOUDY    55  48  76 N5        29.83S
FARGO          LGT RAIN  58  56  93 N8        29.81F FOG
CANDO          FAIR      54  48  82 N7        29.85F
CAVALIER       FAIR      57  46  67 N8        29.83F
GRAFTON        FAIR      55  52  88 NW5       29.83S
LANGDON        FAIR      55  43  62 N5        29.85F
ROLLA          CLOUDY    52  48  87 N7        29.88S
WALHALLA       FAIR      50  50 100 CALM      29.84F
$$

CITY           SKY/WX    TMP DP  RH WIND       PRES   REMARKS
ABERDEEN       LGT RAIN  57  56  96 NE9       29.77F FOG
MOBRIDGE       CLOUDY    57  57 100 NE5       29.78F
BUFFALO          N/A     52  51  97 NW9       29.79F
RAPID CITY     CLOUDY    51  50  96 N9        29.82F
GLASGOW        CLEAR     53  43  68 E3        29.89S
SIDNEY         PTCLDY    48  45  87 CALM      29.89S
WOLF POINT     PTCLDY    46  42  86 SW3       29.89S
GLENDIVE       CLOUDY    48  46  93 NW3       29.91S
MILES CITY     CLOUDY    52  50  93 NW7       29.90S
BAKER          CLOUDY    53  51  93 N6        29.89F
$$

CITY           SKY/WX    TMP DP  RH WIND       PRES   REMARKS
BILLINGS       CLOUDY    51  46  83 NW8       29.93S
GREAT FALLS    CLEAR     45  41  86 SW3       29.93S
REGINA         PTCLDY    50  41  71 SE5       29.89S
ESTEVAN        PTCLDY    46  45  93 N5        29.89F
$$




USA.gov is the U.S. government's official web portal to all federal, state and local government web resources and services.